Tracking 33744 objects as of 12-Apr-2026
HD Live streaming from Space Station
objects crossing your sky now

OV1-13 R/B

Track OV1-13 R/B now!
10-day predictions


NORAD ID: 3212
Int'l Code: 1968-026D
Perigee: 612.8 km
Apogee: 9,123.7 km
Inclination: 100.0 °
Period: 197.6 minutes
Semi major axis: 11239 km
RCS: 1.1486 m2 (large)
Launch date: April 6, 1968
Source: United States (US)
Launch site: AIR FORCE WESTERN TEST RANGE (AFWTR)

Note: This is a ROCKET BODY
Your satellite tracking list
Your tracking list is empty




NASA's NSSDC Master Catalog

Two Line Element Set (TLE):
1 03212U 68026D   26102.15706381 -.00000055  00000-0 -84928-4 0  9999
2 03212 100.0004  30.7253 3786250 272.9678  45.4441  7.28616888315541
Source of the keplerian elements: AFSPC